FW6482 Weather Reports


time (UTC)temp
F
wind
direction
speed
knots
gust
knots
rain 1hr
in
rain 24hr
in
rain mn
in
humidity
%
barometer
mb
20260506193010 47 311 0.0 2.6 0.00 0.40 0.23 95 1007.2
20260506191509 47 313 0.0 2.6 0.01 0.40 0.23 95 1007.0
20260506190012 47 323 0.0 1.7 0.01 0.40 0.23 95 1006.9
20260506184514 47 323 0.0 2.6 0.01 0.48 0.23 95 1006.7
20260506183002 47 9 1.7 7.0 0.01 0.48 0.23 95 1006.6
20260506181502 47 258 0.0 5.2 0.00 0.47 0.22 95 1006.5
20260506180100 47 252 0.0 4.3 0.00 0.47 0.22 94 1006.3
20260506174559 47 292 0.0 6.1 0.00 0.54 0.22 94 1006.2
20260506173059 48 293 0.0 4.3 0.01 0.54 0.22 94 1006.1
20260506171606 48 248 0.9 6.1 0.01 0.54 0.22 94 1006.0
20260506170056 48 308 0.0 4.3 0.01 0.54 0.22 94 1006.0
20260506164550 48 309 0.0 3.5 0.01 0.61 0.22 94 1005.9
20260506163047 48 309 0.0 3.5 0.00 0.60 0.21 93 1005.8
20260506161546 49 309 0.9 2.6 0.00 0.60 0.21 93 1005.8
20260506160054 49 309 0.0 2.6 0.00 0.60 0.21 93 1005.7
20260506154540 49 309 0.0 3.5 0.00 0.63 0.21 93 1005.6
20260506153039 50 309 0.0 1.7 0.00 0.63 0.21 93 1005.6
20260506151541 50 259 0.9 4.3 0.00 0.63 0.21 94 1005.4
20260506150035 50 296 0.0 4.3 0.01 0.63 0.21 93 1005.3
20260506144546 50 302 0.0 4.3 0.01 0.63 0.21 93 1005.3
20260506143035 50 13 0.0 4.3 0.01 0.63 0.21 94 1005.1
20260506141532 50 80 0.0 2.6 0.02 0.63 0.21 94 1005.1
20260506140034 50 188 0.0 3.5 0.01 0.62 0.20 94 1005.0
20260506134529 51 97 0.9 3.5 0.01 0.62 0.20 94 1004.9
20260506133031 50 5 0.9 3.5 0.01 0.62 0.20 94 1004.9
20260506131527 50 158 0.0 2.6 0.01 0.61 0.20 94 1004.9
20260506130026 50 207 0.0 3.5 0.02 0.61 0.20 94 1004.7
20260506124528 51 292 0.0 3.5 0.02 0.61 0.20 94 1004.5
20260506123023 51 152 0.0 4.3 0.02 0.61 0.20 94 1004.4
20260506121522 51 243 0.9 4.3 0.01 0.61 0.19 94 1004.4
20260506120021 52 5 0.0 4.3 0.00 0.60 0.18 94 1004.3
20260506114533 52 170 0.0 4.3 0.00 0.60 0.18 94 1004.2
20260506113021 51 33 0.9 3.5 0.00 0.60 0.18 94 1004.2
20260506111519 52 238 0.0 1.7 0.00 0.60 0.18 94 1004.1
20260506110021 51 238 0.9 4.3 0.01 0.60 0.18 94 1004.0
20260506104519 52 11 0.0 2.6 0.01 0.60 0.18 95 1003.9
20260506103018 52 26 0.0 2.6 0.01 0.60 0.18 95 1003.8
20260506101519 52 302 0.9 6.1 0.01 0.60 0.18 95 1003.7
20260506100023 52 322 0.0 2.6 0.00 0.59 0.17 95 1003.5
20260506094517 52 322 0.0 4.3 0.00 0.59 0.17 96 1003.5
20260506093015 52 336 0.0 3.5 0.01 0.59 0.17 96 1003.4
20260506091518 52 335 0.0 4.3 0.01 0.59 0.17 96 1003.3
20260506090013 52 344 0.0 3.5 0.02 0.59 0.17 96 1003.2
20260506084511 51 342 0.0 2.6 0.02 0.59 0.17 96 1003.0
20260506083010 51 327 0.0 4.3 0.02 0.57 0.17 96 1003.0
20260506081510 51 327 1.7 5.2 0.02 0.57 0.17 96 1003.0
20260506073006 50 319 1.7 3.5 0.01 0.56 0.14 96 1002.8
20260506071505 50 319 0.9 3.5 0.02 0.56 0.14 96 1002.8
20260506061558 50 320 0.0 3.5 0.02 0.54 0.13 96 1002.5
20260506044549 50 320 0.0 3.5 0.01 0.53 0.11 96 1002.5
20260506043046 50 320 0.0 0.9 0.01 0.53 0.11 96 1002.5
20260506041550 50 320 0.0 1.7 0.01 0.53 0.11 96 1002.5
20260506040048 50 320 0.0 0.9 0.02 0.53 0.11 96 1002.6
20260506034545 50 320 0.0 0.0 0.02 0.52 0.10 96 1002.6
20260506033045 50 320 0.0 1.7 0.02 0.52 0.10 95 1002.6
20260506031543 50 320 0.0 1.7 0.03 0.52 0.10 95 1002.5
20260506030057 50 320 0.0 0.0 0.04 0.51 0.09 95 1002.5
20260506024551 50 320 0.0 0.0 0.03 0.50 0.09 95 1002.9
20260506023036 50 320 0.0 1.7 0.02 0.50 0.08 95 1003.0
20260506021536 50 320 0.0 1.7 0.02 0.49 0.07 95 1003.1
20260506020034 50 320 0.0 1.7 0.00 0.47 0.06 95 1003.2
20260506014543 50 320 0.0 1.7 0.01 0.47 0.06 95 1003.3
20260506013032 50 320 0.0 1.7 0.01 0.47 0.06 95 1003.4
20260506011537 50 320 0.0 0.9 0.01 0.47 0.06 95 1003.4
20260506010029 50 320 0.0 2.6 0.01 0.47 0.06 95 1003.4
20260506004543 50 320 0.0 1.7 0.00 0.46 0.05 95 1003.5
20260506003033 50 320 0.0 0.9 0.01 0.46 0.05 95 1003.5
20260506001526 50 320 0.0 1.7 0.01 0.46 0.05 95 1003.7
20260506000025 51 320 0.0 0.9 0.02 0.46 0.05 95 1003.9
20260505234522 51 320 0.0 0.9 0.02 0.46 0.05 95 1004.0
20260505233021 51 320 0.0 0.0 0.02 0.46 0.04 95 1004.1
20260505231525 51 320 0.0 0.9 0.02 0.46 0.04 95 1004.1
20260505230021 51 320 0.0 2.6 0.03 0.45 0.03 95 1004.2
20260505224517 51 320 0.0 1.7 0.04 0.45 0.03 95 1004.2
20260505223015 51 320 0.0 0.9 0.04 0.44 0.02 95 1004.3
20260505221518 51 320 0.0 1.7 0.03 0.43 0.01 95 1004.3
20260505220013 52 321 0.0 2.6 0.04 0.42 0.00 95 1004.4
20260505214513 52 321 0.0 0.9 0.04 0.41 0.41 94 1004.4
20260505213011 52 321 0.0 3.5 0.05 0.40 0.40 94 1004.5
20260505211510 52 312 0.0 3.5 0.05 0.39 0.39 94 1004.5
20260505210009 52 313 0.0 3.5 0.06 0.38 0.38 94 1004.6
20260505204508 52 313 0.0 3.5 0.06 0.37 0.37 94 1004.6
20260505203021 52 313 0.0 3.5 0.07 0.35 0.35 94 1004.6
20260505201506 53 313 0.0 2.6 0.08 0.35 0.35 94 1004.6
20260505200005 53 314 0.0 4.3 0.07 0.32 0.32 94 1004.5
20260505194503 53 319 0.0 4.3 0.08 0.31 0.31 94 1004.4